Watsonville, CA

8:10 AM PDT on July 24, 2017 (GMT -0700)
Watsonville Municipal

Weather History for KWVI - October, 2010

Change the Weather History Date:

Saturday, October 30, 2010

  Actual Average Record
Temperature  
Mean Temperature 58 °F 58 °F  
Max Temperature 64 °F 70 °F 83 °F (1999)
Min Temperature 51 °F 46 °F 40 °F (2003)
Degree Days  
Heating Degree Days 7    
Month to date heating degree days 138  
Since 1 July heating degree days 470  
Cooling Degree Days 0    
Month to date cooling degree days 17  
Year to date cooling degree days 128  
Growing Degree Days 8 (Base 50)    
Moisture  
Dew Point 51 °F    
Average Humidity 80    
Maximum Humidity 93    
Minimum Humidity 67    
Precipitation  
Precipitation 0.26 in - 0.82 in (1982)
Month to date precipitation 0.97  
Year to date precipitation 12.70  
Since 1 July precipitation 0.98  
Sea Level Pressure  
Sea Level Pressure 30.02 in    
Wind  
Wind Speed 3 mph (WNW)    
Max Wind Speed 17 mph    
Max Gust Speed 22 mph    
Visibility 8 miles    
Events Rain    
T = Trace of Precipitation, MM = Missing Value Source: NWS Daily Summary

Daily Weather History Graph

Daily Weather History Graph

Search for Another Location

Airport or City:

Trip Planner

Search our weather history database for the weather conditions in past years. The results will help you decide how hot, cold, wet, or windy it might be!

Date:

Astronomy

Oct. 30, 2010 Rise Set
Actual Time 7:29 AM PDT 6:11 PM PDT
Civil Twilight 7:02 AM PDT 6:38 PM PDT
Nautical Twilight 6:31 AM PDT 7:09 PM PDT
Astronomical Twilight 6:01 AM PDT 7:39 PM PDT
Moon 12:02 AM PDT (10/30) 2:07 PM PDT (10/30)
Length of Visible Light 11h 36m
Length of Day
10h 42m
Waning Gibbous, 47% of the Moon is Illuminated
Oct 30
Waning Gibbous
Nov 5
New
Nov 13
First Quarter
Nov 21
Full
Nov 28
Last Quarter

Hourly Weather History & Observations

Time (PDT) Temp. Dew Point Humidity Pressure Visibility Wind Dir Wind Speed Gust Speed Precip Events Conditions
12:53 AM 54.0 °F 44.1 °F 69% 29.89 in 10.0 mi SE 6.9 mph 16.1 mph 0.00 in Rain Light Rain
1:30 AM 53.6 °F 46.4 °F 77% 29.91 in 10.0 mi SSW 3.5 mph - 0.00 in Rain Light Rain
1:53 AM 52.0 °F 48.0 °F 86% 29.91 in 8.0 mi Calm Calm - 0.00 in Rain Light Rain
3:02 AM 51.8 °F 48.2 °F 88% 29.91 in 8.0 mi NNW 4.6 mph - 0.00 in Rain Light Rain
3:20 AM 51.8 °F 48.2 °F 88% 29.91 in 10.0 mi NNW 4.6 mph - 0.00 in   Overcast
3:28 AM 51.8 °F 48.2 °F 88% 29.91 in 10.0 mi NNW 5.8 mph - 0.00 in   Overcast
3:53 AM 51.1 °F 48.0 °F 89% 29.92 in 10.0 mi North 4.6 mph - 0.00 in   Overcast
4:53 AM 52.0 °F 48.0 °F 86% 29.92 in 10.0 mi Calm Calm - 0.00 in   Overcast
5:53 AM 52.0 °F 48.9 °F 89% 29.93 in 10.0 mi Calm Calm - 0.00 in   Overcast
6:53 AM 52.0 °F 48.9 °F 89% 29.94 in 10.0 mi Calm Calm - 0.00 in Rain Light Rain
7:53 AM 52.0 °F 48.9 °F 89% 29.96 in 2.0 mi Calm Calm - 0.01 in Rain Light Rain
8:12 AM 51.8 °F 50.0 °F 94% 29.96 in 3.0 mi Calm Calm - 0.01 in Rain Rain
8:53 AM 53.1 °F 50.0 °F 89% 29.99 in 8.0 mi Calm Calm - 0.01 in Rain Light Rain
9:10 AM 53.6 °F 50.0 °F 88% 30.00 in 2.5 mi Calm Calm - 0.00 in Rain Light Rain
9:22 AM 53.6 °F 50.0 °F 88% 30.00 in 2.5 mi Calm Calm - 0.01 in Rain Light Rain
9:29 AM 53.6 °F 50.0 °F 88% 30.00 in 4.0 mi NNE 3.5 mph - 0.01 in Rain Light Rain
9:46 AM 53.6 °F 51.8 °F 94% 30.01 in 5.0 mi WNW 3.5 mph - 0.01 in Rain Light Rain
9:53 AM 53.1 °F 51.1 °F 93% 30.02 in 2.0 mi Variable 3.5 mph - 0.04 in Rain Heavy Rain
9:55 AM 53.6 °F 51.8 °F 94% 30.02 in 1.5 mi Calm Calm - 0.03 in Rain Heavy Rain
10:02 AM 53.6 °F 51.8 °F 94% 30.02 in 1.2 mi Variable 4.6 mph - 0.05 in Rain Rain
10:10 AM 53.6 °F 51.8 °F 94% 30.02 in 1.0 mi Calm Calm - 0.12 in Rain Heavy Rain
10:32 AM 55.4 °F 53.6 °F 94% 30.03 in 2.0 mi Calm Calm - 0.19 in Rain Rain
10:37 AM 55.4 °F 51.8 °F 88% 30.03 in 5.0 mi North 5.8 mph - 0.19 in Rain Light Rain
10:53 AM 55.0 °F 53.1 °F 93% 30.03 in 10.0 mi NW 4.6 mph - 0.19 in   Overcast
11:03 AM 55.4 °F 51.8 °F 88% 30.04 in 10.0 mi Variable 3.5 mph - N/A   Overcast
11:13 AM 55.4 °F 53.6 °F 94% 30.03 in 10.0 mi Calm Calm - N/A   Overcast
11:53 AM 57.9 °F 54.0 °F 87% 30.05 in 10.0 mi Calm Calm - 0.00 in Rain Light Rain
12:53 PM 62.1 °F 55.0 °F 78% 30.06 in 10.0 mi SSW 13.8 mph 17.3 mph 0.01 in   Overcast
1:03 PM 62.6 °F 55.4 °F 77% 30.06 in 10.0 mi SSW 17.3 mph 20.7 mph N/A   Overcast
1:53 PM 64.0 °F 54.0 °F 70% 30.05 in 10.0 mi South 13.8 mph 21.9 mph N/A   Scattered Clouds
2:53 PM 62.1 °F 53.1 °F 72% 30.06 in 10.0 mi SW 9.2 mph 17.3 mph N/A   Mostly Cloudy
3:53 PM 62.1 °F 52.0 °F 70% 30.06 in 10.0 mi WSW 6.9 mph - N/A   Clear
4:53 PM 61.0 °F 52.0 °F 72% 30.07 in 10.0 mi West 4.6 mph - N/A   Clear
5:53 PM 59.0 °F 52.0 °F 78% 30.08 in 10.0 mi WSW 3.5 mph - N/A   Clear
6:53 PM 57.9 °F 53.1 °F 84% 30.08 in 10.0 mi Calm Calm - N/A   Clear
7:53 PM 55.0 °F 52.0 °F 89% 30.10 in 10.0 mi North 3.5 mph - N/A   Clear
8:50 PM 55.4 °F 53.6 °F 94% 30.14 in 10.0 mi West 4.6 mph - N/A   Mostly Cloudy
8:53 PM 57.0 °F 53.1 °F 87% 30.15 in 10.0 mi Calm Calm - N/A   Mostly Cloudy
9:03 PM 57.2 °F 53.6 °F 88% 30.14 in 10.0 mi West 4.6 mph - N/A   Scattered Clouds
9:53 PM 55.9 °F 53.1 °F 90% 30.14 in 10.0 mi Calm Calm - N/A   Clear
10:53 PM 54.0 °F 51.1 °F 90% 30.13 in 10.0 mi North 3.5 mph - N/A   Clear
11:53 PM 53.1 °F 50.0 °F 89% 30.16 in 10.0 mi West 4.6 mph - N/A   Partly Cloudy